Weather History for PHTO - June, 2014

Change the Weather History Date:

Monday, June 23, 2014

  Actual Average Record
Temperature  
Mean Temperature 73 °F 75 °F  
Max Temperature 79 °F 82 °F 87 °F (1980)
Min Temperature 66 °F 68 °F 64 °F (1962)
Degree Days  
Heating Degree Days 0 0  
Month to date heating degree days 0 0  
Since 1 June heating degree days 0 0  
Since 1 July heating degree days 0 0  
Cooling Degree Days 8 10  
Month to date cooling degree days 203 230  
Year to date cooling degree days 1459 1298  
Since 1 June cooling degree days 203 230  
Growing Degree Days 22 (Base 50)    
Moisture  
Dew Point 69 °F    
Average Humidity 87    
Maximum Humidity 100    
Minimum Humidity 74    
Precipitation  
Precipitation 0.66 in 0.27 in 1.79 in (1979)
Month to date precipitation 5.40 5.40  
Year to date precipitation 53.14 57.31  
Snow  
Snow 0.00 in - - ()
Month to date snowfall 0.0  
Since 1 June snowfall 0.0  
Since 1 July snowfall 0.0  
Snow Depth 0.00 in    
Sea Level Pressure  
Sea Level Pressure 30.02 in    
Wind  
Wind Speed 7 mph (West)    
Max Wind Speed 17 mph    
Max Gust Speed 21 mph    
Visibility 8 miles    
Events Rain    
T = Trace of Precipitation, MM = Missing Value Source: NWS Daily Summary

Daily Weather History Graph

Daily Weather History Graph

Search for Another Location

Airport or City:

Trip Planner

Search our weather history database for the weather conditions in past years. The results will help you decide how hot, cold, wet, or windy it might be!

Date:

Astronomy

Jun. 23, 2014 Rise Set
Actual Time 5:42 AM HST 7:02 PM HST
Civil Twilight 5:18 AM HST 7:26 PM HST
Nautical Twilight 4:49 AM HST 7:55 PM HST
Astronomical Twilight 4:18 AM HST 8:26 PM HST
Moon 2:56 AM HST (6/23) 4:09 PM HST (6/23)
Length of Visible Light 14h 08m
Length of Day
13h 19m
Waning Crescent, 11% of the Moon is Illuminated
Jun 23
Waning Crescent
Jun 26
New
Jul 5
First Quarter
Jul 12
Full
Jul 18
Last Quarter

Hourly Weather History & Observations

Time (HST) Temp. Dew Point Humidity Pressure Visibility Wind Dir Wind Speed Gust Speed Precip Events Conditions
12:53 AM 66.9 °F 61.0 °F 81% 30.00 in 10.0 mi WSW 5.8 mph - N/A   Scattered Clouds
1:53 AM 66.0 °F 61.0 °F 84% 29.98 in 10.0 mi SW 5.8 mph - N/A   Partly Cloudy
2:53 AM 66.0 °F 62.1 °F 87% 29.98 in 10.0 mi SW 5.8 mph - N/A   Partly Cloudy
3:53 AM 66.9 °F 62.1 °F 84% 29.98 in 10.0 mi SW 5.8 mph - N/A   Overcast
4:53 AM 69.1 °F 66.9 °F 93% 29.99 in 10.0 mi WNW 10.4 mph - N/A   Mostly Cloudy
5:10 AM 69.1 °F 68.0 °F 96% 29.99 in 7.0 mi WNW 9.2 mph - 0.00 in Rain Light Rain
5:53 AM 66.9 °F 66.9 °F 100% 30.00 in 7.0 mi WSW 6.9 mph - 0.10 in Rain Heavy Rain
6:53 AM 68.0 °F 68.0 °F 100% 30.02 in 9.0 mi West 4.6 mph - 0.02 in Rain Light Rain
7:53 AM 73.9 °F 70.0 °F 87% 30.03 in 7.0 mi North 3.5 mph - 0.04 in   Mostly Cloudy
8:53 AM 77.0 °F 70.0 °F 79% 30.03 in 10.0 mi NNE 6.9 mph - N/A   Partly Cloudy
9:53 AM 78.1 °F 69.1 °F 74% 30.04 in 10.0 mi North 6.9 mph - N/A   Mostly Cloudy
10:53 AM 78.1 °F 69.1 °F 74% 30.03 in 10.0 mi NE 8.1 mph - N/A   Overcast
11:53 AM 77.0 °F 70.0 °F 79% 30.02 in 10.0 mi ENE 8.1 mph - N/A   Mostly Cloudy
12:49 PM 71.6 °F 71.6 °F 100% 30.02 in 1.5 mi NNE 10.4 mph - 0.01 in Rain Heavy Rain
12:53 PM 72.0 °F 71.1 °F 97% 30.02 in 1.5 mi North 9.2 mph - 0.04 in Rain Heavy Rain
1:00 PM 72.0 °F 71.1 °F 97% 30.02 in 2.5 mi NNW 11.5 mph - 0.03 in Rain Rain
1:09 PM 72.0 °F 71.1 °F 97% 30.02 in 3.0 mi NW 11.5 mph - 0.04 in Rain Light Rain
1:28 PM 71.1 °F 70.0 °F 96% 30.02 in 2.5 mi West 4.6 mph - 0.04 in Rain Rain
1:35 PM 71.1 °F 70.0 °F 96% 30.02 in 1.0 mi SSW 6.9 mph - 0.16 in Rain Heavy Rain
1:42 PM 71.1 °F 71.1 °F 100% 30.01 in 3.0 mi South 6.9 mph - 0.20 in Rain Rain
1:47 PM 69.8 °F 69.8 °F 100% 30.02 in 1.8 mi South 6.9 mph - 0.23 in Rain Heavy Rain
1:53 PM 70.0 °F 70.0 °F 100% 30.01 in 1.2 mi South 8.1 mph - 0.38 in Rain Heavy Rain
1:59 PM 71.1 °F 71.1 °F 100% 30.01 in 3.0 mi SSE 6.9 mph - 0.06 in Rain Rain
2:18 PM 72.0 °F 71.1 °F 97% 30.01 in 10.0 mi WSW 4.6 mph - 0.07 in   Overcast
2:25 PM 72.0 °F 71.1 °F 97% 30.01 in 10.0 mi WNW 6.9 mph - 0.07 in   Overcast
2:53 PM 71.1 °F 71.1 °F 100% 30.00 in 10.0 mi West 8.1 mph - 0.08 in Rain Light Rain
3:53 PM 73.0 °F 71.1 °F 93% 29.99 in 10.0 mi West 3.5 mph - 0.00 in   Overcast
4:53 PM 72.0 °F 71.1 °F 97% 29.99 in 5.0 mi NNW 6.9 mph - 0.03 in Rain Light Rain
5:10 PM 72.0 °F 71.1 °F 97% 29.99 in 7.0 mi NW 6.9 mph - 0.01 in Rain Light Rain
5:53 PM 71.1 °F 71.1 °F 100% 30.00 in 10.0 mi West 5.8 mph - 0.06 in   Overcast
6:53 PM 72.0 °F 71.1 °F 97% 30.01 in 10.0 mi Calm Calm - N/A   Mostly Cloudy
7:14 PM 71.1 °F 70.0 °F 96% 30.02 in 10.0 mi Calm Calm - N/A   Scattered Clouds
7:42 PM 71.1 °F 71.1 °F 100% 30.03 in 10.0 mi Calm Calm - N/A   Mostly Cloudy
7:51 PM 71.6 °F 71.6 °F 100% 30.03 in 10.0 mi WSW 4.6 mph - N/A   Mostly Cloudy
7:53 PM 71.1 °F 71.1 °F 100% 30.03 in 10.0 mi WSW 3.5 mph - N/A   Mostly Cloudy
8:53 PM 69.1 °F 69.1 °F 100% 30.04 in 10.0 mi WSW 4.6 mph - N/A   Partly Cloudy
9:53 PM 68.0 °F 68.0 °F 100% 30.06 in 10.0 mi WSW 3.5 mph - N/A   Clear
10:53 PM 66.9 °F 66.9 °F 100% 30.07 in 10.0 mi SW 5.8 mph - N/A   Clear
11:53 PM 66.9 °F 66.0 °F 97% 30.06 in 10.0 mi SW 5.8 mph - N/A   Mostly Cloudy